EHI
0 0 0 0 0 0 0 0 0 0 0 0 0 0 0 0 0 0 0 0 0 0 0 0 0 0 0 0 0 0 0 0 0 0 0 0 0 0
0 0 0 0 0 0 0 0 0 0 0 0 0 0 0 0 0 0 0 0 0 0 0 0 0 0 0 0 0 0 0 0 0 0 0 0 0 0
0 0 0 0 0 0 0 0 0 0 0 0 0 0 0 0 0 0 0 0 0 0 0 0 0 0 0 0 0 0 0 0 0 0 0 0 0 0
0 0 0 0 0 0 0 0 0 0 0 0 0 0 0 0 0 0 0 0 0 0 0 0 0 0 0 0 0 0 0 0 0 0 0 0 0 0
0 0 0 0 0 0 0 0 0 0 0 0 0 0 0 0 0 0 0 0 0 0 0 0 0 0 0 0 0 0 0 0 0 0 0 0 0 0
0 0 0 0 0 0 0 0 0 0 0 0 0 0 0 0 0 0 0 0 0 0 0 0 0 0 0 0 0 0 0 0 0 0 0 0 0 0
0 0 0 0 0 0 0 0 0 0 0 0 0 0 0 0 0 0 0 0 0 0 0 0 0 0 0 0 0 0 0 0 0 0 0 0 0 0
0 0 0 0 0 0 0 0 0 0 0 0 0 0 0 0 0 0 0 0 0 0 0 0 0 0 0 0 0 0 0 0 0 0 0 0 0 0
0 0 0 0 0 0 0 0 0 0 0 0 0 0 0 0 0 0 0 0 0 0 0 0 0 0 0 0 0 0 0 0 0 0 0 0 0 0
0 0 0 0 0 0 0 0 0 0 0 0 0 0 0 0 0 0 0 0 0 0 0 0 0 0 0 0 0 0 0 0 0 0 0 0 0 0
0 0 0 0 0 0 0 0 0 0 0 0 0 0 0 0 0 0 0 0 0 0 0 0 0 0 0 0 0 0 0 0 0 0 0 0 0 0
0 0 0 0 0 0 0 0 0 0 0 0 0 0 0 0 0 0 0 0 0 0 0 0 0 0 0 0 0 0 0 0 0 0 0 0 0 0
0 0 0 0 0 0 0 0 0 0 0 0 0 0 0 0 0 0 0 0 0 0 0 0 0 0 0 0 0 0 0 0 0 0 0 0 0 0
0 0 0 0 0 0 0 0 0 0 0 0 0 0 0 0 0 0 0 0 0 0 0 0 0 0 0 0 0 0 0 0 0 0 0 0 0 0
0 0 0 0 0 0 0 0 0 0 0 0 0 0 0 0 0 0 0 0 0 0 0 0 0 0 0 0 0 0 0 0 0 0 0 0 0 0
0 0 0 0 0 0 0 0 0 0 0 0 0 0 0 0 0 0 0 0 0 0 0 0 0 0 0 0 0 0 0 0 0 0 0 0 0 0
0 0 0 0 0 0 0 0 0 0 0 0 0 0 0 0 0 0 0 0 0 0 0 0 0 0 0 0 0 0 0 0 0 0 0 0 0 0
0 0 0 0 0 0 0 0 0 0 0 0 0 0 0 0 0 0 0 0 0 0 0 0 0 0 0 0 0 0 0 0 0 0 0 0 0 0
0 0 0 0 0 0 0 0 0 0 0 0 0 0 0 0 0 0 0 0 0 0 0 0 0 0 0 0 0 0 0 0 0 0 0 0 0 0
0 0 0 0 0 0 0 0 0 0 0 0 0 0 0 0 0 0 0 0 0 0 0 0 0 0 0 0 0 0 0 0 0 0 0 0 0 0
0 0 0 0 0 0 0 0 0 0 0 0 0 0 0 0 0 0 0 0 0 0 0 0 0 0 0 0 0 0 0 0 0 0 0 0 0 0
0 0 0 0 0 0 0 0 0 0 0 0 0 0 0 0 0 0 0 0 0 0 0 0 0 0 0 0 0 0 0 0 0 0 0 0 0 0
0 0 0 0 0 0 0 0 0 0 0 0 0 0 0 0 0 0 0 0 0 0 0 0 0 0 0 0 0 0 0 0 0 0 0 0 0 0
Wind_Speed
9 10 9 9 9 9 10 11 12 18 19 9 5 6 7 8 17 13 12 24 31 32 31 31 30 30 29 28 27 25 23 20 18 17 18 17 17 17
8 10 11 10 9 10 11 11 12 15 19 12 9 8 10 12 19 15 13 29 30 31 31 30 29 29 28 27 26 25 23 20 18 17 17 17 16 15
10 11 13 12 10 10 10 11 12 12 17 16 11 10 11 13 13 12 13 13 14 28 30 29 29 29 28 27 25 24 22 21 19 17 16 16 15 14
12 11 13 11 13 11 11 12 12 12 15 19 14 11 13 13 13 13 13 13 11 23 29 29 28 27 27 26 25 24 22 21 19 18 17 15 15 13
12 12 13 12 14 12 12 13 12 13 13 15 16 12 11 10 12 12 13 11 13 17 23 25 25 26 26 25 25 24 22 21 19 18 17 16 15 14
12 13 13 13 14 14 13 14 13 13 13 13 14 13 12 10 9 10 11 9 10 11 16 18 22 24 24 24 24 23 22 21 20 19 17 17 15 15
12 12 13 16 19 17 14 11 11 11 11 12 13 12 11 9 9 9 11 10 10 9 10 10 10 9 11 17 20 21 21 21 20 19 19 18 16 15
12 10 10 13 18 23 26 25 22 16 13 11 11 12 12 11 10 10 10 11 11 5 7 9 8 9 9 8 17 22 22 22 21 21 20 19 17 16
9 8 9 10 16 10 18 25 23 23 22 15 13 13 14 12 12 14 13 13 13 8 8 12 8 10 9 11 21 22 23 23 22 22 21 20 18 17
8 9 10 10 11 15 14 14 10 10 15 11 11 14 13 12 12 13 13 12 11 9 9 11 8 9 10 9 19 23 23 23 23 22 22 20 19 17
8 9 9 9 18 24 16 11 9 9 16 20 21 20 23 23 18 10 8 9 10 8 6 7 7 8 9 9 12 21 23 24 24 24 23 21 19 16
7 8 14 15 19 22 12 8 10 11 9 9 12 15 13 14 19 10 7 8 8 7 4 5 5 5 6 5 6 7 11 19 23 24 23 22 19 11
7 6 6 16 20 21 17 8 14 15 7 7 8 9 8 6 7 7 7 8 9 8 5 4 5 4 5 5 4 4 5 6 9 13 19 21 20 14
7 5 7 16 19 19 14 16 21 16 7 8 9 8 8 7 7 8 9 9 10 11 9 8 7 6 6 6 5 4 4 5 6 7 7 14 18 19
6 11 13 16 16 11 14 18 14 7 8 9 9 9 8 8 8 7 8 8 10 11 11 12 11 9 8 8 7 5 4 4 4 6 7 8 8 9
6 8 12 13 11 12 12 9 7 7 9 8 9 9 8 8 7 7 7 7 7 6 8 11 12 12 10 11 9 9 6 5 4 4 5 6 7 8
5 3 2 3 4 5 5 6 5 7 8 8 8 9 9 9 9 7 6 6 6 6 6 5 8 10 12 9 9 10 9 8 7 6 5 7 8 9
5 2 3 4 5 6 7 7 7 7 7 8 9 9 9 9 9 8 7 6 7 7 6 5 4 4 6 10 15 11 9 8 6 6 5 6 8 8
3 2 3 4 5 6 6 7 7 7 7 8 8 8 9 9 9 9 8 7 7 7 6 5 5 5 6 6 8 18 12 8 6 6 6 6 7 8
3 3 4 4 5 5 6 7 7 7 7 7 8 8 8 9 9 9 8 9 9 8 7 5 5 7 7 5 3 5 17 11 7 7 5 4 4 6
4 4 4 4 5 5 6 6 7 7 8 8 8 8 8 8 9 9 9 13 11 8 8 7 7 11 7 5 6 5 6 15 13 6 5 5 5 6
4 4 4 4 4 5 5 6 6 7 7 7 7 8 7 7 9 11 10 10 9 9 10 9 8 7 6 8 8 6 5 6 13 17 13 7 5 8
4 4 4 4 4 4 5 6 7 7 7 7 7 7 7 8 8 9 10 10 10 10 10 9 6 5 7 8 8 7 7 6 5 6 7 12 14 9
Wind_Direction
246 248 249 255 253 252 255 257 270 288 292 289 270 248 261 267 275 279 277 286 291 294 295 296 296 295 293 291 292 292 288 282 277 271 257 250 256 258
246 250 253 256 257 257 257 257 255 265 280 286 280 271 272 277 281 282 281 287 293 295 293 292 291 291 291 289 285 287 285 283 279 277 263 254 257 265
252 252 256 258 260 262 261 260 260 262 273 283 279 276 270 272 277 275 274 275 280 286 289 289 288 286 285 285 282 284 282 279 277 275 271 262 261 273
255 256 260 262 262 263 264 265 265 263 268 280 282 279 273 272 271 271 277 277 276 283 286 287 285 283 281 280 278 279 279 276 275 274 275 273 270 276
254 256 260 262 266 265 266 268 268 267 264 270 277 277 275 271 273 274 272 272 275 279 285 287 286 284 282 279 275 274 275 273 271 270 272 276 278 278
253 254 256 257 262 266 268 266 267 267 266 268 273 276 275 270 268 276 280 273 274 278 281 281 282 283 282 279 275 272 270 270 268 268 269 268 271 276
255 253 254 258 264 273 277 275 271 272 274 273 276 281 281 282 279 277 279 281 274 269 272 273 276 276 279 279 275 270 267 265 263 262 264 262 262 267
256 256 256 267 276 283 289 292 289 286 287 286 287 286 286 284 282 278 279 281 281 256 260 271 267 270 267 262 265 264 261 259 257 255 256 258 257 258
251 258 266 267 284 282 286 288 289 289 291 291 287 284 285 284 280 276 269 267 269 267 270 275 267 268 264 262 263 259 255 252 251 248 248 252 253 252
247 250 259 268 273 281 276 278 268 270 278 281 269 273 275 276 269 270 271 271 268 262 254 267 267 265 267 258 260 254 249 245 243 243 242 243 247 246
250 253 259 264 279 290 294 289 282 279 291 294 296 300 302 304 302 296 288 283 281 276 251 255 268 273 265 251 247 248 244 240 238 237 236 236 239 237
257 255 269 279 289 296 298 292 292 292 289 291 297 299 296 292 297 294 285 279 279 279 245 246 263 276 281 253 238 237 236 234 232 230 231 231 229 225
263 258 259 286 296 301 306 299 294 306 309 299 294 290 286 277 275 270 259 257 261 257 257 268 273 274 279 296 288 251 233 225 223 225 225 224 222 215
256 258 267 289 299 306 310 303 309 320 314 301 298 300 300 295 287 279 269 257 250 253 253 246 253 261 277 285 281 283 260 231 216 210 207 215 219 215
252 269 284 297 308 310 304 308 317 315 301 300 302 301 297 290 290 289 281 268 259 251 247 238 239 244 245 254 271 286 288 253 226 211 200 201 201 197
272 278 290 301 304 300 304 308 303 294 300 299 300 299 299 298 298 297 297 295 283 269 248 237 232 230 236 239 249 261 265 271 250 226 212 202 196 194
241 233 249 287 292 294 294 293 293 301 305 303 303 305 307 308 306 306 297 295 285 287 287 259 232 226 229 231 238 244 249 251 250 237 215 202 198 196
243 220 259 276 286 295 301 303 302 303 304 306 305 306 308 309 308 306 301 295 292 288 284 279 258 225 215 231 227 239 243 246 245 234 217 205 197 194
235 229 253 268 279 287 292 295 297 299 299 300 302 305 307 308 308 308 307 303 296 290 283 272 254 232 222 229 228 212 221 230 231 229 216 204 193 190
199 228 248 260 271 282 288 292 295 299 299 300 301 303 306 308 308 308 307 304 301 297 290 271 248 236 231 234 255 225 208 216 221 219 208 198 190 184
216 230 242 254 267 277 284 289 291 294 296 299 300 304 307 308 306 306 304 306 306 298 293 284 262 262 259 248 244 239 218 215 221 220 193 181 175 171
216 229 241 251 264 274 282 287 291 292 296 297 300 305 307 306 305 306 305 305 300 294 289 284 272 253 222 222 228 232 231 214 223 237 245 236 183 177
212 222 237 254 264 273 279 284 288 291 293 295 301 306 309 309 306 304 303 301 300 299 297 293 281 245 225 223 227 228 228 216 197 198 224 235 232 233